Weather History for Haines, AK

Change the Weather History Date:

Friday, October 1, 2010

  Actual Average Record
Temperature  
Mean Temperature 48 °F -  
Max Temperature 53 °F 49 °F 64 °F (2003)
Min Temperature 44 °F 40 °F 28 °F (1974)
Degree Days  
Heating Degree Days 16    
Moisture  
Dew Point 45 °F    
Average Humidity 90    
Maximum Humidity 100    
Minimum Humidity 71    
Precipitation  
Precipitation 0.15 in - - ()
Sea Level Pressure  
Sea Level Pressure 29.68 in    
Wind  
Wind Speed 11 mph (NW)    
Max Wind Speed 16 mph    
Max Gust Speed 25 mph    
Visibility 7 miles    
Events Rain    
Averages and records for this station are not official NWS values.
T = Trace of Precipitation, MM = Missing Value Source: NWS Daily Summary

Daily Weather History Graph

Daily Weather History Graph

Search for Another Location

Airport:

Trip Planner

Search our weather history database for the weather conditions in past years. The results will help you decide how hot, cold, wet, or windy it might be!

Date:

Astronomy

Oct. 01, 2010 Rise Set
Actual Time 7:07 AM AKDT 6:34 PM AKDT
Civil Twilight 6:26 AM AKDT 7:14 PM AKDT
Nautical Twilight 5:39 AM AKDT 8:02 PM AKDT
Astronomical Twilight 4:49 AM AKDT 8:51 PM AKDT
Moon 11:30 PM AKDT (10/1) 4:22 PM AKDT (10/1)
Length of Visible Light 12h 48m
Length of Day
11h 27m
Last Quarter, 43% of the Moon is Illuminated
Oct 1
Last Quarter
Oct 7
New
Oct 14
First Quarter
Oct 22
Full
Oct 30
Last Quarter

Hourly Weather History & Observations

Time (AKDT) Temp. Windchill Dew Point Humidity Pressure Visibility Wind Dir Wind Speed Gust Speed Precip Events Conditions
12:54 AM 46.9 °F - 45.0 °F 93% 29.81 in 10.0 mi WNW 9.2 mph - N/A   Clear
1:25 AM 46.4 °F 41.9 °F 44.6 °F 93% 29.78 in 2.5 mi WNW 9.2 mph - N/A   Partly Cloudy
1:35 AM 46.4 °F 42.4 °F 44.6 °F 93% 29.78 in 5.0 mi WNW 8.1 mph - N/A   Partly Cloudy
1:54 AM 46.0 °F 41.4 °F 45.0 °F 96% 29.78 in 5.0 mi WNW 9.2 mph - N/A   Partly Cloudy
1:58 AM 46.4 °F 41.5 °F 44.6 °F 93% 29.78 in 1.8 mi WNW 10.4 mph - N/A   Scattered Clouds
2:04 AM 46.4 °F 41.9 °F 44.6 °F 93% 29.77 in 0.8 mi WNW 9.2 mph - N/A   Mostly Cloudy
2:16 AM 46.4 °F 40.7 °F 44.6 °F 93% 29.77 in 1.0 mi WNW 12.7 mph - N/A   Mostly Cloudy
2:34 AM 46.4 °F 40.7 °F 44.6 °F 93% 29.76 in 3.0 mi WNW 12.7 mph - N/A   Mostly Cloudy
2:39 AM 46.4 °F 41.1 °F 44.6 °F 93% 29.76 in 5.0 mi WNW 11.5 mph - N/A   Scattered Clouds
2:54 AM 46.0 °F 40.6 °F 45.0 °F 96% 29.76 in 3.0 mi WNW 11.5 mph - N/A   Scattered Clouds
3:54 AM 46.0 °F 40.6 °F 44.1 °F 93% 29.75 in 10.0 mi WNW 11.5 mph - 0.01 in   Partly Cloudy
4:54 AM 44.1 °F 38.6 °F 42.1 °F 93% 29.72 in 4.0 mi WNW 10.4 mph - N/A   Clear
5:04 AM 44.6 °F 39.2 °F 42.8 °F 93% 29.71 in 2.5 mi WNW 10.4 mph - N/A   Clear
5:11 AM 44.6 °F 39.7 °F 42.8 °F 93% 29.71 in 7.0 mi WNW 9.2 mph - N/A   Clear
5:18 AM 44.6 °F 38.4 °F 42.8 °F 93% 29.71 in 2.0 mi WNW 12.7 mph - N/A   Partly Cloudy
5:23 AM 44.6 °F 38.4 °F 42.8 °F 93% 29.70 in 0.8 mi WNW 12.7 mph - N/A   Scattered Clouds
5:33 AM 44.6 °F 38.4 °F 42.8 °F 93% 29.70 in 0.8 mi WNW 12.7 mph - N/A   Mostly Cloudy
5:42 AM 44.6 °F 38.4 °F 42.8 °F 93% 29.69 in 0.8 mi WNW 12.7 mph - N/A   Overcast
5:54 AM 44.1 °F 37.4 °F 43.0 °F 96% 29.70 in 0.8 mi WNW 13.8 mph - N/A   Mist
6:10 AM 44.6 °F 38.1 °F 42.8 °F 93% 29.68 in 1.0 mi WNW 13.8 mph - N/A   Overcast
6:42 AM 44.6 °F 37.8 °F 44.6 °F 100% 29.67 in 2.5 mi WNW 15.0 mph - N/A   Overcast
6:54 AM 45.0 °F 38.5 °F 44.1 °F 97% 29.68 in 2.5 mi WNW 13.8 mph - N/A   Overcast
7:06 AM 44.6 °F 37.8 °F 44.6 °F 100% 29.66 in 3.0 mi WNW 15.0 mph - N/A   Overcast
7:54 AM 45.0 °F 38.2 °F 44.1 °F 97% 29.65 in 7.0 mi WNW 15.0 mph - N/A   Overcast
8:11 AM 44.6 °F 37.8 °F 44.6 °F 100% 29.65 in 8.0 mi WNW 15.0 mph - N/A   Overcast
8:38 AM 44.6 °F 38.4 °F 44.6 °F 100% 29.64 in 10.0 mi WNW 12.7 mph - N/A   Overcast
8:54 AM 46.0 °F 39.3 °F 44.1 °F 93% 29.64 in 10.0 mi WNW 16.1 mph - N/A   Overcast
9:06 AM 46.4 °F 40.4 °F 44.6 °F 93% 29.63 in 10.0 mi WNW 13.8 mph - N/A   Overcast
9:54 AM 46.0 °F 40.2 °F 44.1 °F 93% 29.62 in 10.0 mi WNW 12.7 mph - N/A   Overcast
10:54 AM 46.9 °F - 45.0 °F 93% 29.60 in 10.0 mi NW 6.9 mph - N/A   Clear
11:54 AM 48.0 °F - 46.0 °F 93% 29.58 in 10.0 mi West 4.6 mph - N/A   Partly Cloudy
12:54 PM 48.9 °F - 45.0 °F 86% 29.57 in 10.0 mi ESE 8.1 mph - N/A   Partly Cloudy
1:54 PM 50.0 °F - 44.1 °F 80% 29.58 in 10.0 mi ESE 13.8 mph 19.6 mph N/A   Scattered Clouds
2:54 PM 53.1 °F - 44.1 °F 71% 29.61 in 9.0 mi East 11.5 mph 25.3 mph 0.01 in Rain Light Rain
3:54 PM 50.0 °F - 46.0 °F 86% 29.62 in 6.0 mi East 10.4 mph 19.6 mph 0.06 in Rain Light Rain
4:15 PM 51.8 °F - 46.4 °F 82% 29.61 in 9.0 mi East 13.8 mph 21.9 mph 0.02 in Rain Light Rain
4:25 PM 51.8 °F - 46.4 °F 82% 29.61 in 10.0 mi East 10.4 mph 23.0 mph 0.02 in Rain Light Rain
4:54 PM 51.1 °F - 48.0 °F 89% 29.62 in 8.0 mi ENE 10.4 mph 20.7 mph 0.03 in Rain Light Rain
5:54 PM 52.0 °F - 48.0 °F 86% 29.61 in 10.0 mi East 11.5 mph 21.9 mph 0.01 in Rain Light Rain
6:54 PM 51.1 °F - 48.9 °F 92% 29.63 in 9.0 mi East 9.2 mph 25.3 mph 0.01 in Rain Light Rain
7:02 PM 51.8 °F - 48.2 °F 88% 29.62 in 8.0 mi East 9.2 mph 21.9 mph 0.00 in Rain Light Rain
7:36 PM 51.8 °F - 46.4 °F 82% 29.63 in 10.0 mi East 8.1 mph 19.6 mph 0.01 in Rain Light Rain
7:54 PM 50.0 °F - 46.0 °F 86% 29.67 in 10.0 mi Variable 5.8 mph - 0.01 in   Overcast
8:13 PM 50.0 °F - 46.4 °F 87% 29.66 in 10.0 mi East 10.4 mph 19.6 mph N/A   Overcast
8:54 PM 50.0 °F - 46.0 °F 86% 29.66 in 10.0 mi East 9.2 mph 21.9 mph 0.00 in Rain Light Rain
9:01 PM 50.0 °F - 46.4 °F 87% 29.66 in 10.0 mi East 8.1 mph 16.1 mph 0.00 in   Mostly Cloudy
9:38 PM 48.2 °F - 46.4 °F 93% 29.66 in 10.0 mi East 8.1 mph 16.1 mph 0.00 in   Scattered Clouds
9:54 PM 50.0 °F - 45.0 °F 83% 29.68 in 10.0 mi East 10.4 mph 21.9 mph 0.00 in   Scattered Clouds
10:04 PM 50.0 °F - 44.6 °F 82% 29.67 in 10.0 mi East 10.4 mph 21.9 mph N/A   Mostly Cloudy
10:33 PM 50.0 °F - 46.4 °F 87% 29.69 in 10.0 mi ESE 9.2 mph 20.7 mph 0.01 in   Mostly Cloudy
10:54 PM 50.0 °F - 46.0 °F 86% 29.70 in 10.0 mi East 9.2 mph 23.0 mph 0.01 in   Mostly Cloudy
11:05 PM 51.8 °F - 44.6 °F 76% 29.69 in 10.0 mi ESE 12.7 mph 21.9 mph N/A   Mostly Cloudy
11:54 PM 48.9 °F - 44.1 °F 83% 29.71 in 10.0 mi East 9.2 mph 19.6 mph N/A   Partly Cloudy